User: anonymous   Login
Location: Cactus School
(34.5700°N, 118.0931°W)
Time: 17:43:37
(UTC-07:00)
Language:

Tiangong 2 - Orbit

View from above orbital plane
View from above orbital plane
View from above satellite
View from above satellite

Ground track
Ground track

The orbit data is extracted from the following two-line orbital elements,

1 41765U 16057A   18114.56223051 +.00006825 +00000-0 +83208-4 0  9997
2 41765 042.7849 302.6430 0004921 255.3681 203.9888 15.61063122091604
Epoch (UTC): 24 April 2018 13:29:36
Eccentricity: 0.0004921
inclination: 42.7849°
perigee height: 381 km
apogee height: 388 km
right ascension of ascending node: 302.6430°
argument of perigee: 255.3681°
revolutions per day: 15.61063122
mean anomaly at epoch: 203.9888°
orbit number at epoch: 9160

The dashed part of the orbit path shows where the satellite is in the earth's shadow,  

DLR